Powrót do katalogu

COSMOS 2535 DEB

AktywnySSO
NORAD 44632·DEBRIS·🇷🇺 Russia

Wystrzelony Jul 10, 2019 z Plesetsk Cosmodrome

Loading…

Następne Przeloty (najbliższe 24 godziny)

TLE

ŚwieżeSource: Space-Track

Epoka: Sep 14, 2026, 20:35 UTC

1 44632U 19039J   26257.85791742  .00008060  00000-0  41569-3 0  9998
2 44632  97.5081 296.3504 0012377  74.0842 286.1754 15.16549812378592

Śledź COSMOS 2535 DEB w czasie rzeczywistym z AllMySat

Download on the App Store